Location: Aufkirchen
(47.9603°N, 11.3653°E)
Time: 07:11:01
(UTC+01:00)

Transit 2A - Pass Details

Date: 30 November 2020
Orbit: 599 x 960 km, 66.7° (Epoch: 25 January)

Event Time Altitude Azimuth Distance (km) Brightness Sun altitude
Rises 22:49:25 0° 321° (NW) 3,441 - -59.9°
Reaches altitude 10° 22:53:31 10° 349° (NNW) 2,414 - -60.3°
Maximum altitude 22:56:01 13° 16° (NNE) 2,148 - -60.6°
Drops below altitude 10° 22:58:27 10° 43° (NE) 2,297 - -60.8°
Sets 23:02:08 0° 72° (ENE) 3,129 - -61.1°
